STARLINK-36548, 67617

Orbit data source: Space-Track

STARLINK-36548, 67617 is a payload satellite owned by SpaceX/Seattle (US) in LEO that was launched on Fri, 30 Jan 2026 UTC via an FALCON 9 launch vehicle from the Air Force Eastern Test Range (AFETR). Payload-class satellites include a variety of spacecraft equipped with specific instruments for various scientific and technological missions. These include communications satellites like Starlink; space stations such as the ISS; scientific satellites like the Hubble; Earth observation satellites from companies like Planet Labs, Umbra, and HawkEye 360; GPS; miniature CubeSats for education and research; and military/defense satellites.

Loading next visibility...
Identifier
67617, 2026-020A
Orbit
LEO
Country
Flag of USUS
Related business
Manufacturer
SpaceX/Seattle
Mission
Operational Commercial Communications
Bus & Motor
STARLINK V2MO, Unknown motor
Mass
575 kg wet, ~530 kg dry
Launch date (UTC)
2026-01-30 (5 months ago)
Launch vehicle
FALCON 9
Launch site
Air Force Eastern Test Range (AFETR)
Object type
Payload
Rocket body
Debris
Shape & HBR
Box + 2 Pan, 17.7 m
Radar Cross Section
36.964 m², Large (>1 m²)

Expand to show TLE details & history
Last TLE update: 1 day ago

TLE from 1 day ago
0 STARLINK-36548
1 67617U 26020A   26170.58480551  .00012636  00000-0  46745-3 0  9996
2 67617  43.0025 284.6477 0002707 280.0437  80.0109 15.27612603 21690
Epoch: 2026-06-19T14:02Z
TLE epoch observation values (Epoch: 2026-06-19T14:02:07.196Z)
Latitude
-0.00001°
Longitude
166.30603°
Altitude
482.406 km
Speed
7.626 km/s
True Right ascension
18h 58m 35s
True Declination
0° 00' 00"
Sunlit
Object was in full shadow at epoch
Visualization orbit readout
Latitude
Unknown
Longitude
Unknown
Altitude
Unknown
Speed
Unknown
Apparent Right ascension
Unknown
Apparent Declination
Unknown
Sunlit
N/A
Visualization observer readout
Local Sidereal Time
08:41:47
Azimuth
Unknown
Elevation
Unknown
Doppler factor
Unknown
Orbital elements
Apogee altitude
486.754 km
Perigee altitude
483.038 km
Semi-major axis
6,863.033 km
Eccentricity
0.00027
Inclination
43.0025°
RAAN
284.6477°
Arg. of periapsis
280.0437°
True anomaly
80.04145°
Mean anomaly
80.0109°
Eccentric anomaly
80.02618°
Mean motion
3.81741 °/min
Orbital period
94.3 mins
BSTAR
0.00046745
Loading maneuver chart data...
Computing Atmospheric mass density...
Loading historical data...
Loading historical data...
Loading historical data...
Loading historical data...
Loading historical data...
Loading historical data...
Loading historical data...

Documentation

Showing up to 5 results
|